Location: ????????
(48.3879°N, 37.7860°E)
Time: 16:38:30
(UTC+00:00)

Daily predictions for brighter satellites

Satellite Brightness Start Highest point End
(mag) Time Altitude Azimuth Time Altitude Azimuth Time Altitude Azimuth
Cosmos 1553 Rocket 4.2 18:06:51 10° S 18:13:12 84° W 18:19:40 10° N
Cosmos 1656 Rocket 4.1 18:07:51 10° NNW 18:13:14 60° WSW 18:18:38 10° S
USA 234 3.9 18:07:18 10° E 18:13:39 55° NNE 18:20:01 10° NW
Lacrosse 5 rocket 2.5 18:11:44 10° NW 18:15:16 35° NNE 18:18:57 10° E
Cosmos 1238 Rocket 4.2 18:11:09 10° NNW 18:16:11 60° W 18:22:00 10° S
CZ-4B R/B 1.3 18:19:45 10° N 18:22:39 70° WNW 18:25:31 10° SSW
Meteor 2-10 Rocket 3.5 18:21:05 10° NNW 18:26:12 88° E 18:31:13 10° S
S3M 4.0 18:20:37 10° S 18:26:50 80° E 18:33:01 10° N
Cosmos 407 Rocket 3.5 18:23:56 10° NNW 18:29:10 76° ENE 18:34:18 10° SSE
GENESIS II 4.3 18:26:01 10° NW 18:30:05 82° NE 18:34:04 10° SE
BREEZE-M DEB (TANK) 4.1 18:29:11 10° WSW 18:30:30 14° SSW 18:32:07 10° S
Okean 1 Rocket 3.9 18:26:21 10° NNW 18:30:44 52° W 18:35:04 10° S
APEX 4.1 18:26:34 10° SSW 18:32:33 89° WNW 18:37:32 10° NNE
MetOp-B 4.5 18:30:03 10° S 18:35:22 68° WSW 18:40:44 10° NNW
SL-14 R/B 4.2 18:31:56 10° SSW 18:35:41 50° WNW 18:39:31 10° N
Meteor 2-5 Rocket 3.9 18:30:43 10° S 18:36:02 51° E 18:41:24 10° NNE
Cosmos 1455 Rocket 3.1 18:31:42 10° N 18:36:04 66° E 18:40:22 10° SSE
USA 245 3.8 18:31:26 10° SSE 18:36:39 87° WSW 18:40:53 10° NNW
Cosmos 2056 Rocket 4.2 18:33:09 10° SSE 18:38:02 37° ESE 18:42:59 10° NE
SPOT 5 2.8 18:33:44 10° SSE 18:38:13 65° ENE 18:42:34 10° N
Cosmos 1607 4.4 18:41:35 10° S 18:47:16 38° ESE 18:52:55 10° NE
Cosmos 1271 Rocket 3.6 18:44:18 10° N 18:48:02 37° ENE 18:51:09 14° SE
Cosmos 1025 Rocket 3.1 18:44:08 10° S 18:48:19 61° E 18:52:33 10° NNE
USA 32 4.3 18:44:03 10° SSE 18:49:06 53° E 18:54:11 10° NNE
ERS-1 Rocket 3.0 18:44:38 11° SSE 18:49:33 75° ENE 18:54:37 10° N
Cosmos 1300 3.9 18:46:09 10° NNW 18:49:43 39° W 18:53:15 10° SSW
Cosmos 1140 Rocket 3.8 18:47:45 10° NNW 18:52:56 67° WSW 18:57:56 11° S
Cosmos 1943 3.9 18:50:35 10° SW 18:56:10 58° WNW 19:01:46 10° NNE
Cosmos 1603 4.3 18:54:24 10° SW 19:00:02 61° WNW 19:05:45 10° NNE
CZ-2C R/B 3.8 18:58:19 10° NNE 19:02:57 62° ESE 19:07:26 10° S
Lacrosse 5 2.5 18:59:07 10° NW 19:04:10 55° NNE 19:09:11 10° ESE
Cosmos 1975 Rocket 3.4 19:04:20 10° SSW 19:08:47 70° W 19:13:15 10° N
Cosmos 1954 Rocket 4.1 19:04:32 10° NNW 19:09:52 76° ENE 19:14:01 17° SSE
Helios 1A Rocket 3.3 19:07:41 12° S 19:11:22 58° WSW 19:15:25 10° NNW
Resurs 01 Rocket 4.2 19:13:28 10° SW 19:16:11 16° W 19:18:55 10° NW
USA 267 3.2 19:15:05 10° ENE 19:21:39 75° SE 19:28:11 10° SW
ATLAS 5 CENTAUR R/B 4.0 19:10:03 10° NW 19:22:07 42° WSW 19:25:35 14° S
Lacrosse 4 Rocket 3.8 19:18:40 10° WSW 19:22:09 26° NW 19:25:37 10° NNE
Cosmos 2228 3.8 19:21:07 10° N 19:25:05 37° ENE 19:27:35 19° SE
Cosmos 1544 Rocket 3.7 19:22:54 10° NNW 19:27:14 72° W 19:30:31 17° S
Terra 2.1 19:24:00 15° S 19:27:55 63° WSW 19:32:40 10° NNW
Tiangong 2.4 19:25:28 10° SW 19:27:57 23° S 19:27:57 23° S
Cosmos 2315 Rocket 4.5 19:22:34 10° SSW 19:28:52 63° WNW 19:35:09 10° N
Cosmos 1980 Rocket 4.2 19:25:17 10° N 19:29:29 20° NE 19:33:40 10° E
NOSS 2-1 (C) 4.0 19:25:58 10° NW 19:30:20 75° NE 19:34:59 17° SE
Cosmos 1703 3.9 19:28:22 22° SSE 19:30:22 39° E 19:33:59 10° NNE
Meteor 1-24 Rocket 3.9 19:25:07 10° SSW 19:30:23 68° WNW 19:35:46 10° N
SL-8 R/B 3.7 19:26:45 10° W 19:31:36 90° NNE 19:36:27 10° E
Cosmos 1697 Rocket 3.9 19:29:23 10° NNW 19:34:29 33° NE 19:39:16 11° ESE
SAR-Lupe-1 4.3 19:31:20 10° NNE 19:34:49 50° E 19:36:38 25° SSE
FALCON 9 DEB 3.3 19:31:47 10° WSW 19:35:02 68° NNW 19:38:19 10° ENE
Cosmos 1455 2.6 19:33:38 10° NNW 19:37:22 56° W 19:39:56 19° S
Cosmos 1371 Rocket 4.3 19:33:12 10° SSW 19:38:24 69° WNW 19:43:41 10° NNE
Cosmos 1452 Rocket 4.0 19:36:47 20° SSE 19:39:56 41° ESE 19:44:51 10° NE
NOSS 2-1 (D) 4.0 19:36:17 10° NW 19:40:43 87° NE 19:45:05 19° SE
RESURS DK-1 3.6 19:40:47 10° NNW 19:44:34 33° NE 19:47:23 16° ESE
ARIANE 5 R/B 3.3 19:46:05 18° S 19:49:16 49° W 19:53:38 10° NNW
ASTEX 1 3.9 19:45:01 10° NNE 19:49:51 47° E 19:52:36 24° SSE
Cosmos 2074 Rocket 4.1 19:46:28 10° N 19:52:47 81° W 19:57:20 20° S
ATLAS 2AS CENTAUR R/B 2.8 19:45:46 10° NW 19:52:53 72° SW 19:57:27 22° SSE
Lacrosse 5 rocket 1.4 19:50:37 10° WNW 19:54:26 57° SW 19:56:17 29° SSE
Cosmos 2084 3.0 19:50:39 10° SW 19:54:28 76° SE 19:58:21 10° NE
USA 234 3.3 19:51:32 18° SE 19:56:34 72° SW 20:03:08 10° WNW
Cosmos 2344 4.5 19:49:47 10° NW 19:58:17 65° NE 20:10:01 10° ESE
Cosmos 2058 Rocket 4.5 19:56:09 10° NNE 19:59:55 27° ENE 20:02:12 18° ESE
Cosmos 1656 3.6 19:56:40 10° NNW 20:02:09 89° WSW 20:05:29 25° SSE
Cosmos 1833 Rocket 3.3 20:02:58 24° SSE 20:05:37 38° ESE 20:10:47 10° NE
GP-B 3.6 20:01:56 10° NNE 20:06:14 47° E 20:08:14 28° SE
Cosmos 1892 Rocket 4.4 20:08:05 26° SE 20:09:49 37° E 20:13:53 10° NNE
Cosmos 2154 Rocket 4.0 20:05:46 10° N 20:12:02 82° W 20:16:04 23° S
Nadezhda 1 Rocket 3.9 20:10:03 21° S 20:14:19 85° E 20:20:25 10° N
Cosmos 2082 Rocket 3.6 20:17:54 19° SE 20:19:41 22° E 20:23:58 10° NE
Cosmos 1741 Rocket 4.0 20:18:34 10° NNW 20:23:54 76° WSW 20:26:43 28° S
COSMOS 2406 3.6 20:42:59 29° SSE 20:45:31 48° ESE 20:51:02 10° NE
Cosmos 968 Rocket 3.9 20:40:27 10° NNW 20:45:34 58° ENE 20:48:31 25° SE
Lacrosse 5 2.4 20:42:17 10° WNW 20:47:05 42° SW 20:48:46 32° S
Cosmos 1606 Rocket 4.1 20:44:22 10° NNW 20:48:30 47° W 20:50:19 29° SSW
H-2A R/B 3.5 20:45:10 10° NNE 20:49:23 69° ESE 20:50:52 38° S
Meteor 1-11 4.2 20:48:17 30° S 20:51:12 74° E 20:56:48 10° NNE
SL-8 Rocket 4.0 20:45:07 10° N 20:51:26 81° E 20:54:53 29° SSE
Cosmos 2218 Rocket 4.1 20:48:27 10° N 20:54:53 74° E 20:58:31 28° SSE
Cosmos 2369 3.9 20:50:09 10° NNW 20:55:54 72° ENE 20:59:20 25° SE
Cosmos 2341 Rocket 4.0 20:50:18 10° N 20:56:41 80° W 21:00:11 28° S
Cosmos 1633 4.4 20:57:00 18° E 20:57:33 18° E 21:00:02 10° NE
SL-16 R/B 4.1 20:56:23 10° N 21:01:06 26° NE 21:05:46 10° E
SJ 16-02 3.9 20:59:39 10° NNE 21:02:12 15° NE 21:04:43 10° E
USA 267 4.1 20:58:12 10° NE 21:04:31 53° NNW 21:10:50 10° W
Cosmos 2366 rocket 4.0 20:58:18 10° N 21:04:38 85° E 21:08:07 29° SSE
Cosmos 1408 2.6 21:09:35 46° SW 21:10:25 65° W 21:13:51 10° N
ALOS 2 2.8 21:09:14 36° SSW 21:10:48 60° WSW 21:15:10 10° NNW
Cosmos 1867 4.2 21:05:31 10° NNW 21:10:54 54° NE 21:15:31 14° ESE
Cosmos 967 Rocket 4.5 21:06:58 24° SSW 21:11:02 75° ESE 21:17:31 10° NE
Cosmos 1900 4.3 21:07:00 10° NW 21:12:12 78° WSW 21:14:34 32° SSE
Cosmos 1825 2.3 21:12:17 45° SE 21:13:06 58° E 21:16:48 10° NNE
SL-8 R/B 3.6 21:09:20 10° W 21:14:09 76° SSW 21:18:59 10° ESE
Cosmos 1980 Rocket 2.2 21:08:37 10° NNW 21:14:22 85° ENE 21:17:30 28° SSE
Cosmos 1697 Rocket 3.1 21:13:15 10° NW 21:18:39 49° WSW 21:20:59 31° SSW
RESURS DK-1 3.5 21:18:53 10° NW 21:22:29 29° WSW 21:23:13 27° SW
ADEOS Rocket 3.5 21:18:38 28° S 21:22:37 67° WSW 21:30:08 10° NNW
Cosmos 1812 Rocket 4.0 21:20:27 10° N 21:24:53 55° ENE 21:26:45 31° SE
In-Cosmos 22 Rocket 4.2 21:26:35 30° SSW 21:29:29 83° WNW 21:35:03 10° N
Cosmos 1892 3.4 21:31:44 32° WSW 21:32:58 43° WNW 21:36:35 10° N
Cosmos 2181 Rocket 4.1 21:30:29 27° SSW 21:33:57 69° WNW 21:40:09 10° N
ERS-2 2.1 21:30:32 10° N 21:34:07 72° WNW 21:35:04 46° SW
Cosmos 2084 Rocket 3.2 21:31:10 10° NW 21:35:05 84° NE 21:36:46 34° SE
Cosmos 2058 Rocket 4.2 21:34:00 10° NNW 21:37:56 33° W 21:39:28 25° SW
USA 276 2.0 21:38:55 42° W 21:39:44 74° NNW 21:42:39 10° ENE
Cosmos 1602 Rocket 3.5 21:38:17 40° S 21:39:44 71° E 21:44:03 10° NNE
USA 234 4.4 21:38:52 21° SW 21:40:20 22° SW 21:45:18 10° WNW
Cosmos 2278 3.7 21:36:29 10° NNW 21:42:14 85° ENE 21:45:38 26° SSE
ATLAS 2AS CENTAUR R/B 4.4 21:38:43 10° WNW 21:42:29 15° WSW 21:44:51 13° SW
Cosmos 2322 Rocket 3.6 21:38:13 10° NNW 21:43:24 35° NE 21:48:34 10° ESE
Cosmos 1302 Rocket 4.2 21:40:59 26° SW 21:43:52 66° WNW 21:49:03 10° NNE
Cosmos 1833 Rocket 3.8 21:44:37 12° WSW 21:49:32 40° NW 21:54:51 10° NNE
SL-19 R/B 4.4 21:50:10 39° SE 21:51:13 60° ENE 21:54:58 10° N
CRYOSAT 2 4.5 21:49:52 31° SSE 21:52:11 70° E 21:57:04 10° N
CZ-2D R/B 4.2 21:51:03 10° NE 21:54:17 16° E 21:57:31 10° SE
Geosat 3.9 21:55:47 26° SSE 21:58:40 89° WSW 22:03:44 10° NNW
Cosmos 1821 Rocket 4.0 21:56:38 10° NNW 22:02:56 74° W 22:06:18 29° S
Cosmos 2082 Rocket 2.4 21:59:43 24° SW 22:03:14 68° WNW 22:08:57 10° NNE
Cosmos 1626 Rocket 4.3 22:04:58 27° SW 22:06:46 41° WNW 22:10:54 10° N
Cosmos 1238 4.0 22:09:26 65° SSW 22:09:49 89° W 22:12:51 10° N
ATLAS 5 CENTAUR R/B 1.9 22:09:38 34° SE 22:10:16 37° ESE 22:14:04 10° NE
Nadezhda 3 Rocket 4.0 22:12:40 28° SSW 22:16:05 80° W 22:22:16 10° N
Resurs 1-4 Rocket 3.6 22:11:59 10° NE 22:16:26 26° E 22:19:46 15° SE
Thor Agena Rocket 4.4 22:12:32 10° NNE 22:17:28 41° E 22:20:14 23° SSE
Cosmos 1825 Rocket 3.5 22:16:49 36° S 22:18:31 78° E 22:22:51 10° NNE
PSLV R/B 4.4 22:14:41 10° N 22:19:16 48° WNW 22:21:43 25° SW
Cosmos-2242 3.3 22:15:09 10° NNW 22:19:17 51° W 22:20:41 35° SSW
Cosmos 2360 Rocket 3.2 22:20:28 10° NNW 22:25:56 45° NE 22:31:22 10° SE
COSMOS 2406 4.5 22:25:01 11° WSW 22:30:00 35° NW 22:35:17 10° NNE
Cosmos 1633 3.7 22:30:47 25° WSW 22:31:50 30° WNW 22:34:59 10° N
Cosmos 1932 4.5 22:34:04 22° SW 22:38:14 82° NW 22:44:37 10° NE
SJ 16-02 1.3 22:36:56 10° NNW 22:41:23 84° WSW 22:43:51 26° SSE
Cosmos 1340 Rocket 2.7 22:41:29 35° S 22:43:04 77° E 22:47:00 10° NNE
SL-16 R/B 3.2 22:39:01 10° SE 22:45:05 54° ENE 22:51:10 10° N
SL-16 R/B 2.2 22:40:05 10° NNW 22:45:45 70° WSW 22:49:42 20° SSE
Cosmos 972 Rocket 4.2 22:42:25 10° NNW 22:47:24 71° ENE 22:52:07 13° SSE
FALCON 9 DEB 3.8 22:45:07 10° WNW 22:48:20 53° NNE 22:51:34 10° E
Cosmos 1606 3.8 22:47:02 10° NNW 22:50:27 31° W 22:51:30 26° WSW
Cosmos 1867 4.4 22:49:30 10° NW 22:54:16 31° WSW 22:56:07 25° SSW
Meteor 2-3 Rocket 4.4 22:50:30 18° SSE 22:54:28 49° E 22:59:51 10° NNE
MOS 1 Rocket 4.1 22:50:06 11° SE 22:54:37 54° ENE 22:59:39 10° N
SL-8 R/B 4.4 22:52:04 10° W 22:56:17 30° SW 22:57:37 26° S
Cosmos 1980 Rocket 3.9 22:54:06 10° WNW 22:57:36 17° W 22:59:13 15° WSW
Cosmos 1354 Rocket 4.4 22:56:17 10° NNW 23:01:23 48° WSW 23:04:16 24° SSW
ADEOS II 3.2 23:00:54 10° NNE 23:05:45 36° E 23:10:01 13° SSE
Cosmos 1782 3.5 23:02:15 10° N 23:06:11 50° ENE 23:09:27 14° SSE
Cosmos 2219 Rocket 3.4 23:03:35 10° NNW 23:09:00 44° NE 23:14:25 10° SE
Cosmos 2058 4.0 23:08:17 21° WSW 23:10:21 33° WNW 23:14:12 10° N
USA 276 2.2 23:12:15 10° WNW 23:15:09 66° N 23:18:02 10° E
Cosmos 2221 2.8 23:11:25 10° NNW 23:15:39 54° W 23:18:00 24° SSW
Cosmos 2333 Rocket 2.7 23:11:35 10° NNW 23:17:20 65° ENE 23:23:03 10° SE
Meteor 1-28 Rocket 4.1 23:17:07 10° SE 23:20:39 46° ENE 23:24:12 10° N
CZ-4 R/B 3.9 23:16:26 10° NNE 23:21:16 81° ESE 23:24:39 20° S
Helios 1A 4.1 23:21:41 10° SE 23:25:40 43° ENE 23:29:40 10° N
Cosmos 1933 3.3 23:23:25 10° NNW 23:27:25 74° W 23:30:10 19° S
Cosmos 2322 Rocket 2.5 23:22:12 10° NW 23:27:37 47° WSW 23:31:55 16° S
Cosmos 1727 Rocket 4.1 23:23:41 17° S 23:28:49 83° E 23:35:10 10° N
Cosmos 990 Rocket 4.4 23:26:30 10° NNW 23:31:38 65° ENE 23:36:44 10° SSE
AQUA 4.0 23:29:02 10° NNE 23:33:48 72° ESE 23:37:31 17° S
CZ-2D R/B 2.1 23:29:43 10° NNE 23:34:56 77° WNW 23:38:50 18° SSW
UNK 3.7 23:33:30 13° S 23:37:39 76° WSW 23:42:21 10° NNW
Cosmos 2151 2.9 23:38:32 19° SSW 23:41:33 82° W 23:45:53 10° N
SL-4 R/B 3.4 23:42:05 16° S 23:43:53 23° SE 23:47:01 10° E
Cosmos 1898 Rocket 4.1 23:40:09 10° NNW 23:45:17 58° ENE 23:50:22 10° SE
NOSS 8 (A) 4.3 23:45:44 21° SSW 23:47:54 72° SE 23:50:51 10° NE
Cosmos 2082 Rocket 4.4 23:44:46 10° WNW 23:48:28 17° NW 23:52:09 10° N
Cosmos 2100 Rocket 4.1 23:42:29 10° N 23:48:55 89° W 23:55:18 10° S
IDEFIX/ARIANE 42P 2.7 23:44:02 10° NNE 23:49:17 72° ESE 23:54:02 12° S
Meteor 1-26 Rocket 4.4 23:44:42 10° NNW 23:50:20 63° W 23:56:03 10° S
Cosmos 2333 4.2 23:45:42 10° NNW 23:51:28 74° WSW 23:57:13 10° SSE
ATLAS 5 CENTAUR R/B 2.9 23:51:21 10° W 23:54:49 31° NW 23:58:46 10° NNE
Cosmos 1184 Rocket 4.2 23:52:25 10° N 23:55:16 35° ENE 23:58:05 10° SE
